Tracking 18852 objects as of 24-Nov-2017
HD Live streaming from Space Station
objects crossing your sky now

SCOUT X-1 DEB

Track SCOUT X-1 DEB now!
10-day predictions


NORAD ID: 4026
Int'l Code: 1961-004G
Perigee: 564.1 km
Apogee: 1,393.0 km
Inclination: 38.8 °
Period: 104.5 minutes
Semi major axis: 7349 km
RCS: 0.0614 m2 (small)
Launch date: February 16, 1961
Source: United States (US)
Launch site: WALLOPS ISLAND (WLPIS)

Note: This is SATELLITE DEBRIS
aabbcc
Your satellite tracking list
Your tracking list is empty




NASA's NSSDC Master Catalog

Two Line Element Set (TLE):
1 04026U 61004G   17328.00113472  .00001616  00000-0  50423-3 0  9993
2 04026  38.8345 206.1022 0563909 140.4963 223.8304 13.77871148699471
Source of the keplerian elements: AFSPC